User: anonymous   Login
Location: Mercogliano
(40.9167°N, 14.7333°E)
Time: 01:02:19
(UTC+00:00)
Language:

CZ-2C R/B - Orbit

View from above orbital plane
View from above orbital plane
View from above satellite
View from above satellite

Ground track
Ground track

The orbit data is extracted from the following two-line orbital elements,

1 31114U 07010B   21136.53737538  .00000043  00000-0  38707-4 0  9998
2 31114  98.2345 332.4930 0060064  17.0533 343.2645 14.19360659730250
Epoch (UTC): 16 May 2021 12:53:49
Eccentricity: 0.0060064
inclination: 98.2345°
perigee height: 784 km
apogee height: 871 km
right ascension of ascending node: 332.4930°
argument of perigee: 17.0533°
revolutions per day: 14.19360659
mean anomaly at epoch: 343.2645°
orbit number at epoch: 73025

The dashed part of the orbit path shows where the satellite is in the earth's shadow,  

DLR